Location: 5810 Zion Rd, Cleves, OH 45002, USA
(39.1922°N, 84.7113°W)
Time: 06:48:42
(UTC-05:00)

Courier 1B Rocket - Pass Details

Date: 06 December 2019
Orbit: 920 x 1202 km, 28.2° (Epoch: 26 January)

Event Time Altitude Azimuth Distance (km) Brightness Sun altitude
Rises 12:32:34 0° 258° (WSW) 3,553 8.1 28.3°
Reaches altitude 10° 12:35:46 10° 243° (WSW) 2,603 7.7 28.3°
Maximum altitude 12:40:20 21° 196° (SSW) 1,917 8.7 28.2°
Drops below altitude 10° 12:44:57 10° 148° (SSE) 2,638 8.2 28.2°
Sets 12:48:14 0° 133° (SE) 3,614 8.5 28.1°
